Cooperstown, ND

8:36 AM CST on February 08, 2016 (GMT -0600)
Cooperstown

Weather History for KS32 - October, 2013

Change the Weather History Date:

Thursday, October 3, 2013

  Actual Average (KJMS) Record (KJMS)
Temperature  
Mean Temperature 42 °F 50 °F  
Max Temperature 51 °F 62 °F 90 °F (1938)
Min Temperature 32 °F 38 °F 18 °F (1989)
Degree Days  
Heating Degree Days 24 15  
Month to date heating degree days 44  
Since 1 July heating degree days 362  
Cooling Degree Days 0 0  
Month to date cooling degree days 0  
Year to date cooling degree days 445  
Moisture  
Dew Point 43 °F    
Average Humidity 90    
Maximum Humidity 100    
Minimum Humidity 71    
Precipitation  
Precipitation 0.00 in 0.07 in 0.69 in (2006)
Month to date precipitation 0.19  
Year to date precipitation 16.38  
Sea Level Pressure  
Sea Level Pressure 30.04 in    
Wind  
Wind Speed 7 mph (NNE)    
Max Wind Speed 18 mph    
Max Gust Speed 24 mph    
Visibility 9 miles    
Events Fog    
T = Trace of Precipitation, MM = Missing Value Source: NWS Daily Summary

Daily Weather History Graph

Daily Weather History Graph

Search for Another Location

Airport or City:

Trip Planner

Search our weather history database for the weather conditions in past years. The results will help you decide how hot, cold, wet, or windy it might be!

Date:

Astronomy

Oct. 03, 2013 Rise Set
Actual Time 7:34 AM CDT 7:07 PM CDT
Civil Twilight 7:03 AM CDT 7:37 PM CDT
Nautical Twilight 6:28 AM CDT 8:13 PM CDT
Astronomical Twilight 5:52 AM CDT 8:49 PM CDT
Moon 6:05 AM CDT (10/3) 6:18 PM CDT (10/3)
Length of Visible Light 12h 33m
Length of Day
11h 32m
Waning Crescent, 2% of the Moon is Illuminated
Oct 3
Waning Crescent
Oct 4
New
Oct 11
First Quarter
Oct 18
Full
Oct 26
Last Quarter

Hourly Weather History & Observations

Time (CDT) Temp. Windchill Dew Point Humidity Pressure Visibility Wind Dir Wind Speed Gust Speed Precip Events Conditions
12:15 AM 37.4 °F - 37.4 °F 100% 30.00 in 4.0 mi Calm Calm - N/A   Clear
12:35 AM 35.6 °F - 35.6 °F 100% 29.99 in 0.2 mi Calm Calm - N/A Fog Fog
12:55 AM 37.4 °F - 37.4 °F 100% 29.98 in 0.2 mi Calm Calm - N/A Fog Fog
1:15 AM 35.6 °F - 35.6 °F 100% 29.98 in 0.2 mi Calm Calm - N/A Fog Fog
1:35 AM 37.4 °F 34.9 °F 37.4 °F 100% 29.98 in 0.2 mi North 3.5 mph - N/A Fog Fog
1:55 AM 33.8 °F - 33.8 °F 100% 29.98 in 0.2 mi Calm Calm - N/A Fog Fog
2:15 AM 35.6 °F - 35.6 °F 100% 29.98 in 0.2 mi Calm Calm - N/A Fog Fog
2:35 AM 32.0 °F - 32.0 °F 100% 29.99 in 0.8 mi Calm Calm - N/A   Mist
2:55 AM 35.6 °F - 35.6 °F 100% 29.98 in 1.2 mi Calm Calm - N/A   Clear
3:15 AM 37.4 °F 34.9 °F 37.4 °F 100% 29.97 in 2.5 mi North 3.5 mph - N/A   Clear
3:35 AM 39.2 °F 34.2 °F 39.2 °F 100% 29.98 in 9.0 mi NNW 6.9 mph - N/A   Clear
3:55 AM 41.0 °F 35.2 °F 41.0 °F 100% 29.97 in 6.0 mi NNW 9.2 mph - N/A   Clear
4:15 AM 44.6 °F 38.8 °F 44.6 °F 100% 29.97 in 10.0 mi North 11.5 mph - N/A   Clear
4:35 AM 44.6 °F 38.8 °F 44.6 °F 100% 29.95 in 10.0 mi North 11.5 mph - N/A   Clear
4:55 AM 44.6 °F 40.7 °F 44.6 °F 100% 29.99 in 10.0 mi NNW 6.9 mph - N/A   Clear
5:15 AM 44.6 °F 42.2 °F 44.6 °F 100% 29.99 in 10.0 mi North 4.6 mph - N/A   Clear
5:35 AM 44.6 °F - 44.6 °F 100% 30.00 in 10.0 mi Calm Calm - N/A   Clear
5:55 AM 44.6 °F 41.4 °F 44.6 °F 100% 29.98 in 10.0 mi North 5.8 mph - N/A   Clear
6:15 AM 44.6 °F 39.7 °F 44.6 °F 100% 29.97 in 10.0 mi North 9.2 mph - N/A   Clear
6:35 AM 44.6 °F 38.8 °F 44.6 °F 100% 29.96 in 10.0 mi North 11.5 mph - N/A   Clear
6:55 AM 44.6 °F 39.7 °F 44.6 °F 100% 29.96 in 10.0 mi NNE 9.2 mph - N/A   Clear
7:15 AM 46.4 °F 43.5 °F 46.4 °F 100% 30.00 in 10.0 mi North 5.8 mph - N/A   Clear
7:35 AM 46.4 °F 44.3 °F 46.4 °F 100% 30.02 in 10.0 mi North 4.6 mph - N/A   Clear
7:55 AM 44.6 °F 40.7 °F 44.6 °F 100% 30.02 in 10.0 mi North 6.9 mph - N/A   Clear
8:15 AM 44.6 °F - 44.6 °F 100% 30.03 in 10.0 mi Calm Calm - N/A   Clear
8:35 AM 44.6 °F 41.4 °F 44.6 °F 100% 30.04 in 10.0 mi North 5.8 mph - N/A   Clear
8:55 AM 46.4 °F 44.3 °F 46.4 °F 100% 30.04 in 10.0 mi NNE 4.6 mph - N/A   Clear
9:15 AM 46.4 °F 42.9 °F 46.4 °F 100% 30.03 in 10.0 mi NNE 6.9 mph - N/A   Clear
9:35 AM 46.4 °F 43.5 °F 46.4 °F 100% 30.04 in 10.0 mi North 5.8 mph - N/A   Partly Cloudy
9:55 AM 46.4 °F 43.5 °F 46.4 °F 100% 30.04 in 10.0 mi NNE 5.8 mph - N/A   Clear
10:15 AM 46.4 °F 41.9 °F 46.4 °F 100% 30.04 in 10.0 mi North 9.2 mph - N/A   Clear
10:35 AM 48.2 °F - 46.4 °F 93% 30.04 in 10.0 mi NNE 9.2 mph - N/A   Clear
10:55 AM 48.2 °F - 46.4 °F 93% 30.05 in 10.0 mi NNE 10.4 mph - N/A   Clear
11:15 AM 50.0 °F - 46.4 °F 87% 30.04 in 10.0 mi NNE 13.8 mph 19.6 mph N/A   Clear
11:35 AM 50.0 °F - 46.4 °F 87% 30.04 in 10.0 mi NNE 15.0 mph 18.4 mph N/A   Clear
11:55 AM 50.0 °F - 44.6 °F 82% 30.03 in 10.0 mi NNE 16.1 mph - N/A   Clear
12:15 PM 50.0 °F - 44.6 °F 82% 30.03 in 10.0 mi NNE 17.3 mph 24.2 mph N/A   Partly Cloudy
12:35 PM 50.0 °F - 44.6 °F 82% 30.04 in 10.0 mi NNE 15.0 mph - N/A   Mostly Cloudy
12:55 PM 50.0 °F - 46.4 °F 87% 30.04 in 10.0 mi NNE 13.8 mph - N/A   Mostly Cloudy
1:15 PM 50.0 °F - 46.4 °F 87% 30.04 in 10.0 mi NNE 16.1 mph - N/A   Mostly Cloudy
1:35 PM 50.0 °F - 46.4 °F 87% 30.05 in 10.0 mi NNE 15.0 mph - N/A   Scattered Clouds
1:55 PM 50.0 °F - 46.4 °F 87% 30.05 in 10.0 mi NNE 16.1 mph - N/A   Partly Cloudy
2:15 PM 51.8 °F - 46.4 °F 82% 30.05 in 10.0 mi NNE 12.7 mph - N/A   Partly Cloudy
2:35 PM 51.8 °F - 46.4 °F 82% 30.04 in 10.0 mi NNE 18.4 mph 24.2 mph N/A   Scattered Clouds
2:55 PM 51.8 °F - 44.6 °F 76% 30.04 in 10.0 mi NNE 15.0 mph 18.4 mph N/A   Partly Cloudy
3:15 PM 51.8 °F - 44.6 °F 76% 30.04 in 10.0 mi NNE 17.3 mph - N/A   Mostly Cloudy
3:35 PM 51.8 °F - 44.6 °F 76% 30.04 in 10.0 mi NNE 15.0 mph - N/A   Mostly Cloudy
3:55 PM 51.8 °F - 44.6 °F 76% 30.04 in 10.0 mi NNE 17.3 mph 24.2 mph N/A   Overcast
4:15 PM 51.8 °F - 44.6 °F 76% 30.04 in 10.0 mi NNE 18.4 mph - N/A   Overcast
4:35 PM 51.8 °F - 44.6 °F 76% 30.05 in 10.0 mi NNE 16.1 mph 19.6 mph N/A   Overcast
4:55 PM 51.8 °F - 44.6 °F 76% 30.05 in 10.0 mi NNE 13.8 mph - N/A   Overcast
5:15 PM 50.0 °F - 46.4 °F 87% 30.05 in 10.0 mi NNE 11.5 mph - N/A   Overcast
5:35 PM 50.0 °F - 46.4 °F 87% 30.06 in 10.0 mi NNE 11.5 mph - N/A   Overcast
5:55 PM 50.0 °F - 46.4 °F 87% 30.07 in 10.0 mi NNE 11.5 mph - N/A   Overcast
6:15 PM 50.0 °F - 46.4 °F 87% 30.07 in 10.0 mi NNE 12.7 mph - N/A   Overcast
6:35 PM 50.0 °F - 44.6 °F 82% 30.07 in 10.0 mi NNE 11.5 mph - N/A   Overcast
6:55 PM 50.0 °F - 44.6 °F 82% 30.07 in 10.0 mi NNE 12.7 mph - N/A   Overcast
7:15 PM 50.0 °F - 44.6 °F 82% 30.08 in 10.0 mi NNE 11.5 mph - N/A   Mostly Cloudy
7:35 PM 50.0 °F - 42.8 °F 76% 30.10 in 10.0 mi NNE 13.8 mph - N/A   Mostly Cloudy
7:55 PM 50.0 °F - 41.0 °F 71% 30.10 in 10.0 mi NNE 10.4 mph - N/A   Overcast
8:15 PM 50.0 °F - 41.0 °F 71% 30.11 in 10.0 mi NNE 11.5 mph - N/A   Mostly Cloudy
8:35 PM 48.2 °F - 41.0 °F 76% 30.11 in 10.0 mi NNE 13.8 mph 19.6 mph N/A   Scattered Clouds
8:55 PM 48.2 °F - 41.0 °F 76% 30.12 in 10.0 mi NNE 12.7 mph - N/A   Partly Cloudy
9:15 PM 48.2 °F - 41.0 °F 76% 30.13 in 10.0 mi NNE 18.4 mph 23.0 mph N/A   Scattered Clouds
9:35 PM 48.2 °F - 41.0 °F 76% 30.13 in 10.0 mi North 16.1 mph - N/A   Partly Cloudy
9:55 PM 46.4 °F 39.5 °F 41.0 °F 81% 30.13 in 10.0 mi NNE 17.3 mph 20.7 mph N/A   Clear
10:15 PM 46.4 °F 39.8 °F 42.8 °F 87% 30.13 in 10.0 mi North 16.1 mph 21.9 mph N/A   Clear
10:35 PM 46.4 °F 39.8 °F 42.8 °F 87% 30.13 in 10.0 mi North 16.1 mph 20.7 mph N/A   Clear
11:35 PM 46.4 °F 39.2 °F 44.6 °F 93% 30.14 in 10.0 mi NNE 18.4 mph 23.0 mph N/A   Scattered Clouds
11:55 PM 44.6 °F 36.9 °F 44.6 °F 100% 30.15 in 10.0 mi NNE 18.4 mph - N/A   Mostly Cloudy